This is the latest recevied weather packets stored in our database for station/object K4VEB. If no packets are shown the sender has not sent any weather packets the latest 10 day(s).
| Time | Temp. | Humidity | Pressure | Rain* | Wind** | Luminosity | Snow |
|---|---|---|---|---|---|---|---|
| 1777578577 | 31.67° C | 48% | 1009.6 hPa | 0 mm | - | 677 W/m² | - |
| 1777578277 | 31.67° C | 48% | 1009.7 hPa | 0 mm | - | 184 W/m² | - |
| 1777577973 | 31.11° C | 49% | 1009.7 hPa | 0 mm | - | 718 W/m² | - |
| 1777577668 | 31.11° C | 49% | 1009.7 hPa | 0 mm | - | 746 W/m² | - |
| 1777577366 | 31.11° C | 49% | 1010.1 hPa | 0 mm | - | 698 W/m² | - |
| 1777577061 | 31.11° C | 48% | 1009.9 hPa | 0 mm | - | 163 W/m² | - |
| 1777576759 | 31.67° C | 48% | 1009.9 hPa | 0 mm | - | 819 W/m² | - |
| 1777576458 | 31.67° C | 47% | 1010 hPa | 0 mm | - | 306 W/m² | - |
| 1777576155 | 31.67° C | 46% | 1010.1 hPa | 0 mm | - | 723 W/m² | - |
| 1777575849 | 31.67° C | 48% | 1009.9 hPa | 0 mm | - | 772 W/m² | - |
| 1777575547 | 31.67° C | 46% | 1010.1 hPa | 0 mm | - | 683 W/m² | - |
| 1777575242 | 31.11° C | 48% | 1010.1 hPa | 0 mm | - | 801 W/m² | - |
| 1777574938 | 31.11° C | 48% | 1010.1 hPa | 0 mm | - | 211 W/m² | - |
| 1777574635 | 31.67° C | 46% | 1010.2 hPa | 0 mm | - | 260 W/m² | - |
| 1777574332 | 31.67° C | 47% | 1010.3 hPa | 0 mm | - | 853 W/m² | - |
| 1777574032 | 32.22° C | 46% | 1010.5 hPa | 0 mm | - | 828 W/m² | - |
| 1777573727 | 31.67° C | 46% | 1010.4 hPa | 0 mm | - | 279 W/m² | - |
| 1777573424 | 31.67° C | 47% | 1010.5 hPa | 0 mm | - | 782 W/m² | - |
| 1777573119 | 31.67° C | 47% | 1010.5 hPa | 0 mm | - | 865 W/m² | - |
| 1777572816 | 31.11° C | 48% | 1010.7 hPa | 0 mm | - | 841 W/m² | - |
| 1777572512 | 31.11° C | 47% | 1010.7 hPa | 0 mm | - | 851 W/m² | - |
| 1777572207 | 31.67° C | 47% | 1010.7 hPa | 0 mm | - | 734 W/m² | - |
| 1777571903 | 31.67° C | 47% | 1010.7 hPa | 0 mm | - | 937 W/m² | - |
| 1777571598 | 31.11° C | 48% | 1010.8 hPa | 0 mm | - | 923 W/m² | - |
| 1777571296 | 31.11° C | 47% | 1010.9 hPa | 0 mm | - | 881 W/m² | - |
* Rain latest hour (hover to see other rain measurements)
** Current wind speed in m/s (hover to see current wind gust speed)